Location: Unspecified
(0.0000°N, 0.0000°E)
Time: 10:24:12
(UTC+00:00)

COSMOS 2471 (GLONASS) - Pass Details

Date: 15 December 2022
Orbit: 19085 x 19180 km, 65.9° (Epoch: 04 February)

Event Time Altitude Azimuth Distance (km) Brightness Sun altitude
Rises 19:08:30 0° 208° (SSW) 24,680 ? -16.8°
Reaches altitude 10° 19:34:19 10° 214° (SW) 23,602 ? -22.6°
Maximum altitude 21:10:04 31° 264° (W) 21,668 ? -43.6°
Drops below altitude 10° 04:38:08 10° 144° (SE) 23,570 ? -17.7°
Sets 05:04:33 0° 151° (SSE) 24,660 ? -11.7°
